Regional Weather Roundup
Issued by NWS

Home | Current Version | Previous Version | Graphics & Text | Print | Product List | Glossary On
Versions: 1 2 3 4 5 6 7 8 9 10 11 12 13 14 15 16 17 18 19 20 21 22 23 24 25 26 27 28 29 30 31 32 33 34 35 36 37 38 39 40 41 42 43 44 45 46 47 48 49 50
150
ASUS45 KCYS 250410
RWRWY

WYOMING REGIONAL WEATHER ROUNDUP
NATIONAL WEATHER SERVICE CHEYENNE WY
1000 PM MDT WED AUG 24 2016

NOTE:  "FAIR" INDICATES FEW OR NO CLOUDS BELOW 12,000 FEET
WITH NO SIGNIFICANT WEATHER AND/OR OBSTRUCTIONS TO VISIBILITY.

WYZ001-250500-
YELLOWSTONE NATIONAL PARK

CITY           SKY/WX    TMP DP  RH WIND       PRES   REMARKS
LK YELLOWSTONE   N/A     35  35 100 NW3       30.42S
W YELLOWSTONE  NOT AVBL

$$
WYZ002>013-054>058-071-098>099-250500-
NORTHERN WYOMING

CITY           SKY/WX    TMP DP  RH WIND       PRES   REMARKS
JACKSON        FAIR      54  30  40 N10       30.29S
CODY           CLOUDY    52  45  76 NW6       30.37R
GREYBULL       FAIR      60  42  51 NW16      30.27R
WORLAND        FAIR      58  43  57 NW13      30.29R
SHERIDAN       CLOUDY    57  41  55 N9        30.32R
BUFFALO        CLOUDY    55  42  61 NW13G23   30.34S
GILLETTE       FAIR      57  41  55 N13       30.29R
HULETT         CLOUDY    57  39  51 N15       30.30S
NEWCASTLE      FAIR      61  37  41 N10G16    30.25R

$$
WYZ014>020-022>026-101>103-250500-
CENTRAL WYOMING

CITY           SKY/WX    TMP DP  RH WIND       PRES   REMARKS
BIG PINEY      MOCLDY    56  18  22 N9        30.28R
PINEDALE       CLOUDY    55  32  41 CALM      30.29R
DUBOIS         CLOUDY    48  34  57 E10       30.36R
LANDER         CLOUDY    56  40  55 NE14      30.32R
RIVERTON       MOCLDY    51  45  79 N16       30.32R
CASPER         FAIR      57  40  52 NE21G30   30.29R
DOUGLAS        MOCLDY    59  45  59 N9        30.27R

$$
WYZ021-027>030-104>119-250500-
SOUTHERN WYOMING

CITY           SKY/WX    TMP DP  RH WIND       PRES   REMARKS
EVANSTON       FAIR      57  17  21 W5        30.28R
FORT BRIDGER   FAIR      56  14  19 SW10      30.30R
ROCK SPRINGS   NOT AVBL
DIXON          FAIR      55  31  39 NE5       30.20S
RAWLINS        FAIR      55  42  61 NE15      30.25R
SARATOGA       FAIR      50  41  71 S9        30.25S
LARAMIE        FAIR      48  41  76 S9        30.29F
CHEYENNE       FAIR      55  47  74 S6        30.29R
TORRINGTON     FAIR      56  46  69 NE12      30.21R
PINE BLUFFS    FAIR      55  45  67 SW5       30.26S

$$




USA.gov is the U.S. government's official web portal to all federal, state and local government web resources and services.